�������l�o���
Date,Time,MP-1(��Sv/h),MP-2(��Sv/h),MP-3(��Sv/h),MP-4(��Sv/h),MP-5(��Sv/h),MP-6(��Sv/h),MP-7(��Sv/h),����,����(m/s),���J
2015/02/09,00:00,0.521,0.320,0.600,0.546,0.516,0.249,0.222,��,12.0,��
2015/02/09,00:10,0.522,0.320,0.601,0.546,0.518,0.249,0.222,��,10.5,��
2015/02/09,00:20,0.523,0.320,0.601,0.547,0.519,0.250,0.222,��,9.5,��
2015/02/09,00:30,0.523,0.319,0.601,0.545,0.520,0.249,0.222,���쐼,10.4,��
2015/02/09,00:40,0.524,0.321,0.600,0.547,0.519,0.250,0.221,���k��,7.5,��
2015/02/09,00:50,0.523,0.320,0.602,0.546,0.519,0.250,0.223,�k�k��,6.4,��
2015/02/09,01:00,0.524,0.322,0.601,0.546,0.519,0.250,0.222,�k��,6.7,��
2015/02/09,01:10,0.521,0.321,0.603,0.546,0.520,0.251,0.223,�k��,6.1,��
2015/02/09,01:20,0.523,0.319,0.602,0.546,0.519,0.251,0.223,�k�k��,6.2,��
2015/02/09,01:30,0.525,0.321,0.605,0.547,0.518,0.250,0.223,�k�k��,7.1,��
2015/02/09,01:40,0.524,0.320,0.603,0.549,0.521,0.250,0.223,�k,8.1,��
2015/02/09,01:50,0.524,0.321,0.603,0.547,0.520,0.251,0.222,�k,8.0,��
2015/02/09,02:00,0.524,0.321,0.602,0.548,0.521,0.251,0.223,�k�k��,8.1,��
2015/02/09,02:10,0.524,0.320,0.602,0.546,0.520,0.252,0.222,���k��,8.4,��
2015/02/09,02:20,0.524,0.320,0.602,0.547,0.519,0.252,0.223,�k��,8.1,��
2015/02/09,02:30,0.523,0.321,0.603,0.548,0.520,0.251,0.222,�k��,8.7,��
2015/02/09,02:40,0.523,0.321,0.603,0.546,0.521,0.250,0.221,�k��,4.2,��
2015/02/09,02:50,0.524,0.323,0.601,0.548,0.520,0.251,0.223,�k�k��,4.4,��
2015/02/09,03:00,0.525,0.322,0.600,0.548,0.520,0.250,0.222,�k�k��,6.7,��
2015/02/09,03:10,0.523,0.321,0.604,0.547,0.518,0.252,0.221,�k,5.6,��
2015/02/09,03:20,0.525,0.322,0.603,0.547,0.519,0.252,0.222,�k�k��,6.0,��
2015/02/09,03:30,0.525,0.323,0.602,0.547,0.521,0.252,0.223,�k��,6.9,��
2015/02/09,03:40,0.524,0.321,0.602,0.548,0.520,0.249,0.222,�k��,10.7,��
2015/02/09,03:50,0.525,0.321,0.601,0.547,0.521,0.250,0.223,�k,8.7,��
2015/02/09,04:00,0.523,0.323,0.604,0.548,0.520,0.250,0.223,�k,6.7,��
2015/02/09,04:10,0.525,0.322,0.603,0.547,0.520,0.251,0.222,�k,4.9,��
2015/02/09,04:20,0.525,0.322,0.605,0.548,0.520,0.251,0.223,�k�k��,8.0,��
2015/02/09,04:30,0.524,0.322,0.604,0.547,0.519,0.252,0.223,�k,4.7,��
2015/02/09,04:40,0.525,0.320,0.603,0.549,0.518,0.252,0.224,�k,9.0,��
2015/02/09,04:50,0.524,0.322,0.605,0.549,0.520,0.251,0.223,�k,3.6,��
2015/02/09,05:00,0.524,0.323,0.603,0.548,0.520,0.251,0.222,�k�k��,5.8,��
2015/02/09,05:10,0.526,0.320,0.606,0.548,0.523,0.252,0.224,�k,5.3,��
2015/02/09,05:20,0.523,0.321,0.605,0.548,0.520,0.252,0.223,�k,7.4,��
2015/02/09,05:30,0.525,0.320,0.605,0.550,0.520,0.252,0.222,�k,6.1,��
2015/02/09,05:40,0.523,0.321,0.606,0.547,0.521,0.250,0.222,�k�k��,8.0,��
2015/02/09,05:50,0.524,0.323,0.605,0.549,0.520,0.252,0.222,�k,6.7,��
2015/02/09,06:00,0.524,0.321,0.605,0.549,0.522,0.252,0.223,�k,8.6,��
2015/02/09,06:10,0.525,0.321,0.605,0.550,0.520,0.252,0.223,�k,4.9,��
2015/02/09,06:20,0.525,0.321,0.605,0.548,0.522,0.252,0.222,�k��,8.1,��
2015/02/09,06:30,0.524,0.321,0.603,0.549,0.522,0.253,0.223,�k��,7.3,��
2015/02/09,06:40,0.526,0.321,0.606,0.548,0.521,0.251,0.224,�k�k��,6.7,��
2015/02/09,06:50,0.525,0.323,0.606,0.549,0.522,0.252,0.223,�k,2.3,��
2015/02/09,07:00,0.526,0.322,0.605,0.550,0.519,0.252,0.223,�k,5.2,��
2015/02/09,07:10,0.523,0.320,0.606,0.550,0.520,0.252,0.225,�k,3.0,��
2015/02/09,07:20,0.526,0.321,0.605,0.549,0.522,0.251,0.223,�k�k��,2.2,��
2015/02/09,07:30,0.527,0.321,0.607,0.547,0.522,0.252,0.224,�k,6.1,��
2015/02/09,07:40,0.525,0.322,0.606,0.549,0.521,0.252,0.223,�k��,6.7,��
2015/02/09,07:50,0.524,0.322,0.606,0.548,0.520,0.250,0.224,�k,5.6,��
2015/02/09,08:00,0.525,0.323,0.605,0.548,0.522,0.251,0.224,�k,2.8,��
2015/02/09,08:10,0.525,0.321,0.606,0.549,0.521,0.251,0.224,�k,3.1,��
2015/02/09,08:20,0.524,0.321,0.597,0.549,0.522,0.253,0.224,���k��,8.8,��
2015/02/09,08:30,0.524,0.322,-,0.551,0.523,0.252,0.223,���k��,8.0,��
2015/02/09,08:40,0.525,0.323,-,0.550,0.522,0.251,0.224,�k�k��,4.7,��
2015/02/09,08:50,0.525,0.320,-,0.551,0.521,0.251,0.223,�k��,4.4,��
2015/02/09,09:00,0.526,0.323,-,0.550,0.522,0.251,0.223,�k�k��,7.4,��
2015/02/09,09:10,0.525,0.321,-,0.551,0.521,0.251,0.224,�k�k��,6.3,��
2015/02/09,09:20,0.525,0.322,-,0.551,0.521,0.251,0.223,�k��,7.0,��
2015/02/09,09:30,0.526,0.319,-,0.551,0.522,0.251,0.224,�k��,5.3,��
2015/02/09,09:40,0.527,0.321,-,0.551,0.521,0.251,0.225,�k�k��,4.5,��
2015/02/09,09:50,0.524,0.319,-,0.552,0.519,0.251,0.223,�k��,6.2,��
2015/02/09,10:00,0.525,0.320,-,0.551,0.520,0.251,0.222,�k�k��,4.8,��
2015/02/09,10:10,0.528,0.321,-,0.551,0.521,0.251,0.224,�k�k��,1.3,��
2015/02/09,10:20,0.526,0.323,-,0.551,0.521,0.252,0.224,���k��,2.4,��
2015/02/09,10:30,0.525,0.322,-,0.553,0.521,0.253,0.224,��,4.5,��
2015/02/09,10:40,0.527,0.321,-,0.551,0.521,0.252,0.225,���k��,6.2,��
2015/02/09,10:50,0.525,0.320,-,0.552,0.522,0.253,0.224,���k��,7.5,��
2015/02/09,11:00,0.525,0.323,-,0.551,0.523,0.253,0.224,���k��,6.1,��
2015/02/09,11:10,0.528,0.321,-,0.552,0.522,0.250,0.224,�k��,4.7,��
2015/02/09,11:20,0.528,0.321,-,0.552,0.522,0.253,0.226,��,3.9,��
2015/02/09,11:30,0.526,0.323,-,0.552,0.524,0.251,0.224,�k��,4.5,��
2015/02/09,11:40,0.526,0.323,-,0.552,0.522,0.253,0.224,���쐼,5.8,��
2015/02/09,11:50,0.530,0.322,-,0.552,0.521,0.253,0.224,���쐼,7.0,��
2015/02/09,12:00,0.528,0.322,-,0.553,0.522,0.252,0.225,���k��,5.3,��
2015/02/09,12:10,0.528,0.323,-,0.553,0.523,0.252,0.224,��,5.7,��
2015/02/09,12:20,0.528,0.322,-,0.552,0.524,0.252,0.226,���쐼,8.1,��
2015/02/09,12:30,0.528,0.322,-,0.552,0.523,0.253,0.225,��,5.7,��
2015/02/09,12:40,0.527,0.323,-,0.552,0.523,0.253,0.225,��,4.5,��
2015/02/09,12:50,0.530,0.322,-,0.553,0.525,0.252,0.226,���쐼,3.7,��
2015/02/09,13:00,0.527,0.323,-,0.552,0.524,0.252,0.225,��,2.9,��
2015/02/09,13:10,0.529,0.323,-,0.553,0.524,0.253,0.225,���쐼,4.2,��
2015/02/09,13:20,0.532,0.323,-,0.554,0.524,0.252,0.225,���쐼,3.2,��
2015/02/09,13:30,0.530,0.324,-,0.552,0.525,0.253,0.224,���쐼,2.8,��
2015/02/09,13:40,0.528,0.322,-,0.553,0.524,0.254,0.226,���k��,2.5,��
2015/02/09,13:50,0.529,0.323,-,0.552,0.525,0.254,0.226,���k��,1.1,��
2015/02/09,14:00,0.529,0.324,-,0.553,0.526,0.254,0.226,��,2.0,��
2015/02/09,14:10,0.530,0.323,-,0.554,0.524,0.254,0.224,���쐼,4.3,��
2015/02/09,14:20,0.529,0.322,-,0.554,0.525,0.253,0.227,�쐼,0.9,��
2015/02/09,14:30,0.529,0.324,-,0.554,0.525,0.254,0.226,���k��,4.5,��
2015/02/09,14:40,0.530,0.322,-,0.552,0.526,0.254,0.228,�k�k��,2.8,��
2015/02/09,14:50,0.531,0.323,-,0.554,0.527,0.253,0.226,���k��,5.6,��
2015/02/09,15:00,0.530,0.325,-,0.553,0.526,0.252,0.226,���k��,4.8,��
2015/02/09,15:10,0.531,0.323,-,0.555,0.523,0.253,0.226,���k��,4.7,��
2015/02/09,15:20,0.529,0.324,-,0.554,0.526,0.253,0.226,���k��,3.9,��
2015/02/09,15:30,0.528,0.323,-,0.554,0.527,0.254,0.226,���k��,5.6,��
2015/02/09,15:40,0.529,0.323,-,0.555,0.524,0.254,0.225,�k�k��,3.1,��
2015/02/09,15:50,0.529,0.325,-,0.555,0.524,0.254,0.226,�k,3.9,��
2015/02/09,16:00,0.528,0.323,-,0.554,0.525,0.254,0.225,�k,4.1,��
2015/02/09,16:10,0.528,0.323,-,0.553,0.526,0.253,0.225,�k�k��,3.8,��
2015/02/09,16:20,0.528,0.324,-,0.551,0.524,0.252,0.225,�k��,0.9,��
2015/02/09,16:30,0.530,0.324,-,0.554,0.524,0.252,0.225,�k,1.9,��
2015/02/09,16:40,0.530,0.326,-,0.554,0.525,0.255,0.225,�k,2.5,��
2015/02/09,16:50,0.529,0.325,-,0.554,0.526,0.254,0.225,�k,3.1,��
2015/02/09,17:00,0.530,0.325,-,0.553,0.525,0.253,0.226,�k,2.6,��
2015/02/09,17:10,0.529,0.324,-,0.552,0.524,0.253,0.227,�k��,1.7,��
2015/02/09,17:20,0.530,0.325,-,0.552,0.523,0.254,0.226,�k��,2.1,��
2015/02/09,17:30,0.528,0.324,-,0.553,0.524,0.253,0.225,�k,3.0,��
2015/02/09,17:40,0.528,0.324,-,0.554,0.524,0.253,0.225,���k��,2.2,��
2015/02/09,17:50,0.528,0.323,-,0.554,0.525,0.254,0.226,���k��,2.5,��
2015/02/09,18:00,0.528,0.325,-,0.554,0.526,0.254,0.226,�k,3.2,��
2015/02/09,18:10,0.528,0.323,-,0.552,0.524,0.253,0.226,��,1.8,��
2015/02/09,18:20,0.529,0.325,-,0.553,0.526,0.254,0.225,�k�k��,1.3,��
2015/02/09,18:30,0.528,0.324,-,0.552,0.523,0.254,0.226,���k��,2.1,��
2015/02/09,18:40,0.527,0.325,-,0.554,0.523,0.254,0.225,�k,3.9,��
2015/02/09,18:50,0.528,0.326,-,0.553,0.524,0.254,0.226,���k��,6.9,��
2015/02/09,19:00,0.529,0.323,-,0.553,0.523,0.254,0.226,���k��,6.2,��
2015/02/09,19:10,0.528,0.323,-,0.553,0.525,0.254,0.226,��,5.3,��
2015/02/09,19:20,0.529,0.323,-,0.552,0.526,0.254,0.226,��,5.5,��
2015/02/09,19:30,0.526,0.323,-,0.552,0.522,0.254,0.226,��,3.1,��
2015/02/09,19:40,0.529,0.324,-,0.553,0.522,0.255,0.225,�k��,3.8,��
2015/02/09,19:50,0.527,0.324,-,0.552,0.524,0.253,0.225,���k��,7.3,��
2015/02/09,20:00,0.528,0.325,-,0.554,0.523,0.253,0.226,���k��,5.3,��
2015/02/09,20:10,0.528,0.323,-,0.554,0.524,0.253,0.225,���k��,3.4,��
2015/02/09,20:20,0.528,0.324,-,0.553,0.524,0.254,0.225,���k��,3.9,��
2015/02/09,20:30,0.527,0.323,-,0.553,0.521,0.253,0.226,��,4.6,��
2015/02/09,20:40,0.528,0.323,-,0.554,0.523,0.254,0.224,���k��,3.5,��
2015/02/09,20:50,0.528,0.322,-,0.553,0.524,0.254,0.226,���k��,6.2,��
2015/02/09,21:00,0.527,0.323,-,0.554,0.523,0.254,0.225,���k��,5.3,��
2015/02/09,21:10,0.527,0.323,-,0.553,0.523,0.253,0.226,��,6.7,��
2015/02/09,21:20,0.528,0.322,-,0.552,0.522,0.254,0.226,���k��,3.8,��
2015/02/09,21:30,0.528,0.322,-,0.552,0.525,0.254,0.226,���k��,3.8,��
2015/02/09,21:40,0.527,0.323,-,0.554,0.523,0.255,0.226,��,5.9,��
2015/02/09,21:50,0.527,0.324,-,0.553,0.523,0.252,0.226,���k��,8.7,��
2015/02/09,22:00,0.526,0.323,-,0.554,0.522,0.253,0.225,���k��,9.3,��
2015/02/09,22:10,0.527,0.322,-,0.553,0.524,0.253,0.225,���k��,9.8,��
2015/02/09,22:20,0.525,0.323,-,0.553,0.523,0.253,0.226,���k��,10.4,��
2015/02/09,22:30,0.527,0.322,-,0.553,0.523,0.254,0.225,��,13.2,��
2015/02/09,22:40,0.528,0.323,-,0.553,0.521,0.253,0.225,���k��,8.4,��
2015/02/09,22:50,0.527,0.324,-,0.554,0.523,0.253,0.226,���k��,9.1,��
2015/02/09,23:00,0.528,0.324,-,0.553,0.523,0.254,0.226,���k��,9.0,��
2015/02/09,23:10,0.527,0.325,-,0.553,0.524,0.254,0.225,���k��,7.6,��
2015/02/09,23:20,0.528,0.323,-,0.552,0.523,0.254,0.226,�k��,4.5,��
2015/02/09,23:30,0.525,0.323,-,0.553,0.522,0.253,0.225,���k��,5.7,��
2015/02/09,23:40,0.525,0.324,-,0.555,0.522,0.253,0.226,���k��,4.8,��
2015/02/09,23:50,0.526,0.324,-,0.553,0.522,0.252,0.226,���k��,4.8,��
